TimePDT,TemperatureF,Dew PointF,Humidity,Sea Level PressureIn,VisibilityMPH,Wind Direction,Wind SpeedMPH,Gust SpeedMPH,PrecipitationIn,Events,Conditions,WindDirDegrees,DateUTC
12:54 AM,32.0,30.0,92,30.51,6.0,Calm,Calm,-,N/A,,Clear,0,2013-03-10 08:54:00
1:54 AM,30.0,28.9,96,30.50,7.0,SSE,3.5,-,N/A,,Clear,160,2013-03-10 09:54:00
3:54 AM,33.1,30.9,92,30.50,6.0,Calm,Calm,-,N/A,,Clear,0,2013-03-10 10:54:00
5:54 AM,35.1,35.1,100,30.50,7.0,Calm,Calm,-,0.00,Rain,Light Rain,0,2013-03-10 12:54:00
6:54 AM,36.0,35.1,97,30.50,6.0,Calm,Calm,-,0.02,Rain,Light Rain,0,2013-03-10 13:54:00
7:54 AM,36.0,35.1,97,30.50,6.0,Calm,Calm,-,0.00,,Overcast,0,2013-03-10 14:54:00
8:54 AM,37.9,37.0,97,30.49,6.0,WSW,3.5,-,N/A,,Overcast,250,2013-03-10 15:54:00
9:54 AM,39.0,37.9,96,30.48,6.0,Calm,Calm,-,0.01,Rain,Light Rain,0,2013-03-10 16:54:00
10:54 AM,41.0,39.0,93,30.49,6.0,SW,4.6,-,0.00,Rain,Light Rain,230,2013-03-10 17:54:00
11:54 AM,43.0,39.9,89,30.48,6.0,Calm,Calm,-,0.01,Rain,Light Rain,0,2013-03-10 18:54:00
12:54 PM,44.1,39.9,85,30.47,10.0,South,4.6,-,0.00,,Overcast,180,2013-03-10 19:54:00
1:54 PM,45.0,39.9,82,30.46,9.0,Calm,Calm,-,0.00,,Overcast,0,2013-03-10 20:54:00
2:54 PM,45.0,39.9,82,30.45,10.0,SW,3.5,-,N/A,,Overcast,220,2013-03-10 21:54:00
3:54 PM,46.0,39.9,79,30.45,10.0,SSW,3.5,-,N/A,,Overcast,210,2013-03-10 22:54:00
4:54 PM,46.0,41.0,83,30.44,10.0,South,5.8,-,N/A,,Overcast,170,2013-03-10 23:54:00
5:54 PM,46.0,41.0,83,30.44,10.0,SSW,3.5,-,N/A,,Overcast,200,2013-03-11 00:54:00
6:54 PM,44.6,42.8,93,30.43,4.0,SW,3.5,-,N/A,Rain,Light Rain,220,2013-03-11 01:54:00
7:54 PM,44.1,43.0,96,30.45,4.0,Calm,Calm,-,0.01,Rain,Light Rain,0,2013-03-11 02:54:00
8:10 PM,44.1,43.0,96,30.44,5.0,Calm,Calm,-,0.00,,Overcast,0,2013-03-11 03:10:00
8:17 PM,44.1,43.0,96,30.44,4.0,Calm,Calm,-,0.00,Rain,Light Rain,0,2013-03-11 03:17:00
8:45 PM,44.1,43.0,96,30.44,6.0,Calm,Calm,-,0.00,,Overcast,0,2013-03-11 03:45:00
8:54 PM,44.1,43.0,96,30.44,6.0,Calm,Calm,-,0.00,,Overcast,0,2013-03-11 03:54:00
9:02 PM,44.6,42.8,93,30.44,6.0,Calm,Calm,-,N/A,,Overcast,0,2013-03-11 04:02:00
9:54 PM,44.6,42.8,93,30.44,7.0,Calm,Calm,-,N/A,,Overcast,0,2013-03-11 04:54:00
10:02 PM,44.1,43.0,96,30.44,7.0,Calm,Calm,-,N/A,,Overcast,0,2013-03-11 05:02:00
10:14 PM,44.1,43.0,96,30.44,6.0,Calm,Calm,-,N/A,,Overcast,0,2013-03-11 05:14:00
10:24 PM,44.1,43.0,96,30.44,6.0,Calm,Calm,-,N/A,,Overcast,0,2013-03-11 05:24:00
10:54 PM,44.1,43.0,96,30.44,5.0,Calm,Calm,-,N/A,,Overcast,0,2013-03-11 05:54:00
11:15 PM,44.1,43.0,96,30.43,5.0,Calm,Calm,-,N/A,,Overcast,0,2013-03-11 06:15:00
11:29 PM,44.1,43.0,96,30.43,5.0,Calm,Calm,-,N/A,,Overcast,0,2013-03-11 06:29:00
11:54 PM,44.1,43.0,96,30.44,5.0,Calm,Calm,-,N/A,,Overcast,0,2013-03-11 06:54:00
12:37 AM,44.1,43.0,96,30.44,5.0,Calm,Calm,-,N/A,,Overcast,0,2013-03-11 07:37:00
12:54 AM,44.1,43.0,96,30.44,4.0,Calm,Calm,-,N/A,,Overcast,0,2013-03-11 07:54:00